Погода в Павловске

Россия / Республика Саха (Якутия)     61°52′13″N   129°50′57″E
темп.,
°C
ветер,
м/с
пор.,
м/с
влажн.,
%
обл.,
%
осадки,
мм/ч
давл.,
гПа
погр.,
м
18 января, пн
пн1800:00−41юз2497100 0.0 1034163
03:00−44юз2296100 0.1 103440
06:00−45юз2295100 0.0 103436
09:00−47юз229592 0.0 103421
12:00−45ююз129457 0.0 103284
15:00−45ююз119556 0.0 103118
18:00−48ююз119523 0.0 103118
21:00−48юв009531 0.0 103118
19 января, вт
вт1900:00−49в119651 0.0 103018
03:00−49в019651 0.0 103018
06:00−49всв119652 0.0 102918
09:00−49в119652 0.0 102918
12:00−45всв119451 0.0 102854
15:00−45св129647 0.0 102718
18:00−46всв129627 0.0 102818
21:00−46в129415 0.0 102718
20 января, ср
ср2000:00−46в22940 0.0 102618
03:00−46в22950 0.0 102619
06:00−45в12940 0.0 102518
09:00−45в229326 0.0 102518
12:00−41в2392100 0.0 1024109
15:00−39всв239398 0.0 102488
18:00−40в129199 0.0 102519
21:00−40всв128998 0.0 102518
21 января, чт
чт2100:00−40ссв129299 0.0 102518
03:00−42сз119493 0.0 102618
06:00−42зюз119674 0.0 102718
09:00−41юз129883 0.0 102918
12:00−38зюз239485 0.0 1030151
15:00−39з249485 0.0 1031108
18:00−42з239496 0.0 103364
21:00−44зюз239498 0.0 103440
22 января, пт
пт2200:00−45зюз2295100 0.0 103434
03:00−45юз2296100 0.0 103443
06:00−44юз2297100 0.0 103455
09:00−43юз2297100 0.1 103449
12:00−41юз2396100 0.0 1033124
15:00−39ююз2397100 0.1 1033166
18:00−40юз1298100 0.0 103333
21:00−40юз1198100 0.1 103318